Weather in Izhma

Russia / Komi Republic     65°00′34″N   53°54′47″E
temp.,
°C
wind,
m/s
gust,
m/s
humid.,
%
clouds,
%
prec.,
mm/h
press.,
hPa
HPBL,
m
18 april, sun
sun1800:00−6nnw51187100 0.1 1028618
03:00−7n4990100 0.1 1031549
06:00−7nne467788 0.1 1035578
09:00−4n35500 0.1 1036834
12:00−2n35433 0.0 10371268
15:00−1n454864 0.0 10381387
18:00−3n35616 0.0 1038794
21:00−5n257744 0.0 1039255
19 april, mon
mon1900:00−5nne108434 0.0 103936
03:00−6sw1286100 0.0 103969
06:00−4sw24689 0.0 1038351
09:000wsw355212 0.0 1037872
12:00+3w45395 0.0 10351171
15:00+4w46385 0.0 10341281
18:00+2w256273 0.0 1033109
21:00−1wsw2876100 0.0 1033171
20 april, tue
tue2000:00−1wsw3117476 0.0 1032273
03:00−1w3107429 0.0 1032290
06:00+1w311665 0.0 1031412
09:00+5wnw485665 0.0 1031726
12:00+7wnw475235 0.0 10301083
15:00+8wnw46565 0.0 10301122
18:00+6nw22738 0.0 103032
21:00+3wnw118526 0.0 103110
21 april, wed
wed2100:00+2sw118827 0.0 103110
03:00+1ssw22905 0.0 103214
06:00+3ssw23775 0.0 1032133
09:00+7ssw24530 0.0 1031470
12:00+10ssw34397 0.0 10301140
15:00+11s45360 0.0 10281274
18:00+9sse38478 0.0 1027305
21:00+6sse41260100 0.0 1027323
22 april, thu
thu2200:00+5sse41364100 0.0 1025365
03:00+4sse41368100 0.0 1024400
06:00+5sse51468100 0.0 1024551
09:00+9s61449100 0.0 1022939
12:00+8s61254100 0.0 10221036
15:00+10s6125799 0.0 10221166
18:00+9s61264100 0.0 10221176
21:00+8s6147288 0.0 10221110